Location: A�t Lahcen
(32.8243°N, 5.4246°W)
Time: 01:22:41
(UTC+00:00)

ASTRO F (AKARI) - Pass Details

Date: 27 January 2021
Orbit: 396 x 519 km, 98.2° (Epoch: 27 February)

Event Time Altitude Azimuth Distance (km) Brightness Sun altitude
Rises 06:32:43 0° 9° (N) 2,602 8.2 -10.2°
Reaches altitude 10° 06:34:51 10° 7° (N) 1,697 7.2 -9.8°
Maximum altitude 06:38:28 67° 285° (WNW) 524 4.5 -9.0°
Drops below altitude 10° 06:41:56 10° 201° (SSW) 1,619 7.2 -8.3°
Sets 06:43:56 0° 199° (SSW) 2,468 8.1 -7.9°
